Regional Weather Roundup
Issued by NWS Kansas City/Pleasant Hill, MO

Home | Current Version | Previous Version | Text Only | Print | Product List | Glossary On
Versions: 1 2 3 4 5 6 7 8 9 10 11 12 13 14 15 16 17 18 19 20 21 22 23 24 25 26 27 28
000
ASUS43 KEAX 170110
RWREAX

WEATHER ROUNDUP FOR EASTERN KANSAS AND NORTHWEST MISSOURI
NATIONAL WEATHER SERVICE KANSAS CITY/PLEASANT HILL MO
800 PM CDT WED AUG 16 2017

KSZ040-057-103>105-MOZ028-029-037-043-170200-
...KANSAS CITY METROPOLITAN AREA...

CITY           SKY/WX    TMP DP  RH WIND       PRES   REMARKS
K.C. INTL      CLOUDY    76  72  87 S3        29.82R
K.C. DOWNTOWN  LGT RAIN  78  75  90 S7        29.80F
LEES SUMMIT    CLOUDY    71  70  96 S9        29.84S
OLATHE - IXD   CLOUDY    73  71  93 SE8       29.83S
OLATHE - OJC   LGT RAIN  73  72  96 SW5       29.83S
LAWRENCE       CLOUDY    78  75  90 SE6       29.81S

$$

MOZ001>008-011>017-020>025-030>033-038>040-044>046-053-054-170200-
...NORTHERN AND CENTRAL MISSOURI...

CITY           SKY/WX    TMP DP  RH WIND       PRES   REMARKS
ST. JOSEPH     CLOUDY    79  73  82 SW5       29.79R
MOSBY          CLOUDY    73  72  94 SE6       29.82R
WARRENSBURG    CLOUDY    68  64  88 SE15      29.83F
WHITEMAN AFB   TSTM      69  69 100 S8        29.85F
CLINTON        RAIN      68  66  94 E10       29.87F
SEDALIA        TSTM      72  71  97 W13G22    29.86S FOG
WARSAW         NOT AVBL
CHILLICOTHE      N/A     76  74  93 S7        29.83R
KIRKSVILLE     CLOUDY    77  71  82 S8        29.83R

$$

MOZ041-047>049-056>058-063>065-088>090-097-170200-
...EASTERN AND SOUTHERN MISSOURI...

CITY           SKY/WX    TMP DP  RH WIND       PRES   REMARKS
ST. LOUIS INTL LGT RAIN  73  72  96 S12G18    29.90F
SPIRIT OF STL  LGT RAIN  72  70  93 SW6       29.90S
COLUMBIA       MOCLDY    73  71  93 S9        29.88R
JEFFERSON CITY CLOUDY    74  73  97 SE6       29.87R
ROLLA          CLOUDY    71  70  96 SE8       29.92R
OSAGE BEACH    CLOUDY    75  72  90 SE6       29.89S
SPRINGFIELD    PTCLDY    78  74  87 S7        29.92R
BRANSON        MOCLDY    81  73  78 S6        29.94R
JOPLIN         PTCLDY    81  75  82 S6        29.89R
WEST PLAINS    PTCLDY    82  71  69 S5        29.97R

$$

IAZ060-094-KSZ022-034>040-054-083-096-NEZ052-066-093-170200-
...KANSAS...SOUTHEAST NEBRASKA AND IOWA...

CITY           SKY/WX    TMP DP  RH WIND       PRES   REMARKS
TOPEKA         CLOUDY    80  70  71 CALM      29.80S
MANHATTAN      CLOUDY    78  70  76 CALM      29.82R
EMPORIA        CLOUDY    79  68  69 N5        29.85R
CHANUTE        TSTM      71  69  93 SE5       29.86R
WICHITA        CLOUDY    80  69  69 N8        29.85R
OMAHA          PTCLDY    75  65  70 NW8       29.78R
LINCOLN        MOCLDY    76  66  71 N10       29.81R
FALLS CITY     CLOUDY    79  66  64 NW5       29.79S
LAMONI         CLOUDY    79  69  71 SW7       29.79R
DES MOINES     CLOUDY    81  64  56 SW15      29.74R

$$





USA.gov is the U.S. government's official web portal to all federal, state and local government web resources and services.